Retour au catalogue

ATLAS 5 CENTAUR DEB

LostHEO
NORAD 43949·DEBRIS·🇺🇸 United States

Lancé Sep 17, 2014 depuis Cape Canaveral Space Force Station

Loading…

Prochains Passages (prochaines 24 heures)

TLE

PériméSource: Space-Track

Époque: Sep 13, 2025, 09:25 UTC

1 43949U 14055C   25256.39304734 -.00000155  00000-0  00000-0 0  9999
2 43949  20.9210 115.8702 4982413 215.6192  97.7435  1.95774341 28305

Suivez ATLAS 5 CENTAUR DEB en temps réel avec AllMySat

Download on the App Store